Tracking 20376 objects as of 22-Feb-2020
HD Live streaming from Space Station
objects crossing your sky now
Track the group of recently launched Starlink satellites

STARLINK-1171

Track STARLINK-1171 now!
10-day predictions
STARLINK-1171 is classified as:


NORAD ID: 45062
Int'l Code: 2020-006U
Perigee: 418.5 km
Apogee: 420.7 km
Inclination: 53.0 °
Period: 92.8 minutes
Semi major axis: 6790 km
RCS: Unknown
Launch date: January 29, 2020
Source: United States (US)
Launch site: AIR FORCE EASTERN TEST RANGE (AFETR)
aabbcc
Your satellite tracking list
Your tracking list is empty




NASA's NSSDC Master Catalog

Two Line Element Set (TLE):
1 45062U 20006U   20052.91667824 +.00343630 +00000-0 +54876-2 0  9998
2 45062 052.9973 120.8618 0001614 064.0027 192.2719 15.51445100004024
Source of the keplerian elements: AFSPC